STARLINK-32252 (60442 NORAD) Tracking and Keplerian Element Data

This shows tracking and keplerian element data for the satellite.

Feedback or suggestion? Click here.




ElementValue
Catalog60442
NameSTARLINK-32252
Epoch Orbit1083
Epoch Day286.83894941
Epoch Year2024
RAAN78.9607
Inclination53.1619
Eccentricity0.0001049
Argument of Perigee78.7655
Mean Anonmoly281.3463
Mean Motion15.30199378
Decay Rate2.515E-05
L11 60442U 24144T 24286.83894941 .00002515 00000+0 97024-4 0 9997
L22 60442 53.1619 78.9607 0001049 78.7655 281.3463 15.30199378 10837



Live tracking and technical data element details for STARLINK-32252 (NORAD 60442). STARLINK-32252 can be tracked NOW for your location showing map with azimuth and elevation plus other details from your city location.







IsCatalogInMostPopularTable: catalog: 60442, numindb: 8
Update: records affected: 1



GetName: 60442 STARLINK-32252

Hit Count: updated at: Wed, 04 Dec 2024 19:12:40 GMT